Location: *
(49.6619°S, 177.4603°W)
Time: 05:20:51
(UTC+00:00)

USA 307 - Pass Details

Date: 31 January 2023
Orbit: 495 x 502 km, 54.0° (Epoch: 10 March)

Event Time Altitude Azimuth Distance (km) Brightness Sun altitude
Rises 10:54:29 0° 250° (WSW) 2,630 6.8 -21.2°
Reaches altitude 10° 10:56:44 10° 244° (WSW) 1,737 5.9 -21.4°
Maximum altitude 11:00:34 52° 167° (SSE) 640 3.4 -21.5°
Enters shadow 11:02:23 27° 103° (ESE) 994 4.0 -21.6°
